Flight Track Log - Related Links

Times and Time Zones

All times are in EST time to prevent confusion due to time zone crossing. See the EJA922 flight status page for this flight to view local times or setup timezone preferences in your user account.

Time Position Orientation Groundspeed Altitude Reporting Facility
EST Latitude Longitude Course Direction KTS MPH feet Rate Location/Type
Tue 03:27:46 PM 37.7333 -122.2667 132° Southeast 200 230 2,500  Level Northern Cal TRACON
Tue 03:28:46 PM 37.7667 -122.3333 302° West 215 247 5,600 2,650 Climbing Northern Cal TRACON
Tue 03:29:46 PM 37.7333 -122.4167 243° Southwest 258 297 7,800 1,800 Climbing Northern Cal TRACON
Tue 03:30:16 PM 37.7181 -122.4336 221° Southwest 272 313 8,300 1,826 Climbing Oakland Center
Tue 03:31:18 PM 37.6144 -122.4494 187° South 323 372 10,600 1,951 Climbing Oakland Center
Tue 03:32:19 PM 37.5108 -122.4311 172° South 374 430 12,300 1,707 Climbing Oakland Center
Tue 03:33:00 PM 37.0196 -121.7841 132° Southeast  Level FlightAware Approximate
Tue 03:33:21 PM 37.4033 -122.4139 173° South 387 445 14,100  Level Oakland Center
Tue 03:34:22 PM 37.3086 -122.3436 149° Southeast 403 464 16,300 1,770 Climbing Oakland Center
Tue 03:35:23 PM 37.2397 -122.2314 128° Southeast 406 467 17,700 1,317 Climbing Oakland Center
Tue 03:36:25 PM 37.1658 -122.1158 129° Southeast 423 487 19,000 1,366 Climbing Oakland Center
Tue 03:37:26 PM 37.0903 -121.9953 128° Southeast 438 504 20,500 1,377 Climbing Oakland Center
Tue 03:38:27 PM 37.0131 -121.8722 128° Southeast 449 517 21,800 1,317 Climbing Oakland Center
Tue 03:39:29 PM 36.9317 -121.7514 130° Southeast 455 524 23,200 1,512 Climbing Oakland Center
Tue 03:40:30 PM 36.8342 -121.5997 129° Southeast 465 535 24,900 1,317 Climbing Oakland Center
Tue 03:41:32 PM 36.7536 -121.4750 129° Southeast 475 547 25,900 1,024 Climbing Oakland Center
Tue 03:42:33 PM 36.6675 -121.3414 129° Southeast 492 566 27,000 984 Climbing Oakland Center
Tue 03:43:34 PM 36.5800 -121.2061 129° Southeast 500 575 27,900 878 Climbing Oakland Center
Tue 03:44:36 PM 36.4894 -121.0664 129° Southeast 515 593 28,800 927 Climbing Oakland Center
Tue 03:45:37 PM 36.3975 -120.9231 129° Southeast 528 608 29,800 927 Climbing Oakland Center
Tue 03:46:39 PM 36.3044 -120.7786 129° Southeast 535 616 30,700 1,317 Climbing Oakland Center
Tue 03:47:40 PM 36.1894 -120.6064 130° Southeast 539 620 32,500 1,805 Climbing Oakland Center
Tue 03:48:42 PM 36.0958 -120.4619 129° Southeast 536 617 34,400 1,707 Climbing Oakland Center
Tue 03:49:43 PM 36.0019 -120.3200 129° Southeast 533 613 36,000 1,561 Climbing Oakland Center
Tue 03:50:45 PM 35.9072 -120.1775 129° Southeast 534 615 37,600 1,415 Climbing Oakland Center
Tue 03:51:46 PM 35.8131 -120.0369 130° Southeast 531 611 38,900 683 Climbing Oakland Center
Tue 03:52:48 PM 35.7164 -119.8928 130° Southeast 538 619 39,000 49 Climbing Oakland Center
Tue 03:53:49 PM 35.6136 -119.7414 130° Southeast 565 650 39,000  Level Oakland Center
Tue 03:54:51 PM 35.5094 -119.5872 130° Southeast 581 669 39,000  Level Oakland Center
Tue 03:55:52 PM 35.4050 -119.4336 130° Southeast 584 672 39,000  Level Oakland Center
Tue 03:56:54 PM 35.3000 -119.2817 130° Southeast 583 671 39,000 244 Level Oakland Center
Tue 03:57:55 PM 35.1961 -119.1292 130° Southeast 583 671 39,500 923 Climbing Oakland Center
Tue 03:59:04 PM 35.0744 -118.9533 130° Southeast 563 648 41,000 687 Climbing Los Angeles Center
Tue 04:00:06 PM 34.9733 -118.8086 130° Southeast 560 644 41,000  Level Los Angeles Center
Tue 04:01:08 PM 34.8606 -118.6475 130° Southeast 564 649 41,000  Level Los Angeles Center
Tue 04:02:10 PM 34.7581 -118.5014 130° Southeast 566 651 41,000  Level Los Angeles Center
Tue 04:03:12 PM 34.6425 -118.3381 131° Southeast 571 657 41,000  Level Los Angeles Center
Tue 04:04:15 PM 34.5506 -118.2078 131° Southeast 571 657 41,000  Level Los Angeles Center
Tue 04:05:17 PM 34.4394 -118.0461 130° Southeast 573 659 41,000  Level Los Angeles Center
Tue 04:06:19 PM 34.3844 -117.8694 111° Southeast 571 657 41,000  Level Los Angeles Center
Tue 04:07:21 PM 34.3386 -117.6669 105° East 555 639 41,000  Level Los Angeles Center
Tue 04:08:23 PM 34.2950 -117.4856 106° East 560 644 41,000  Level Los Angeles Center
Tue 04:09:25 PM 34.2522 -117.3047 106° East 560 644 41,000  Level Los Angeles Center
Tue 04:10:27 PM 34.2075 -117.1189 106° East 558 642 41,000  Level Los Angeles Center
Tue 04:11:30 PM 34.1642 -116.9394 106° East 560 644 41,000  Level Los Angeles Center
Tue 04:12:32 PM 34.1186 -116.7442 106° East 556 640 41,000  Level Los Angeles Center
Tue 04:13:34 PM 34.0742 -116.5656 107° East 554 638 41,000  Level Los Angeles Center
Tue 04:14:36 PM 34.0300 -116.3853 106° East 558 642 41,000 -48 Level Los Angeles Center
Tue 04:15:38 PM 33.9764 -116.1722 107° East 554 638 40,900  Descending Los Angeles Center
Tue 04:16:40 PM 33.9328 -115.9944 106° East 553 636 41,000 48 Climbing Los Angeles Center
Tue 04:17:42 PM 33.8878 -115.8144 107° East 560 644 41,000  Level Los Angeles Center
Tue 04:18:44 PM 33.8425 -115.6392 107° East 550 633 41,000  Level Los Angeles Center
Tue 04:19:46 PM 33.7956 -115.4597 107° East 560 644 41,000  Level Los Angeles Center
Tue 04:20:49 PM 33.7500 -115.2825 107° East 557 641 41,000  Level Los Angeles Center
Tue 04:21:51 PM 33.6950 -115.0697 107° East 554 638 41,000  Level Los Angeles Center
Tue 04:22:53 PM 33.6492 -114.8933 107° East 554 638 41,000  Level Los Angeles Center
Tue 04:23:55 PM 33.6117 -114.7150 104° East 553 636 41,000  Level Los Angeles Center
Tue 04:24:57 PM 33.5822 -114.5364 101° East 548 631 41,000  Level Los Angeles Center
Tue 04:25:59 PM 33.5514 -114.3589 102° East 545 627 41,000  Level Los Angeles Center
Tue 04:26:45 PM 33.5314 -114.2339 101° East 543 625 41,000  Level Albuquerque Center
Tue 04:27:47 PM 33.4942 -114.0194 102° East 547 629 41,000  Level Albuquerque Center
Tue 04:28:48 PM 33.4603 -113.8436 103° East 544 626 41,000  Level Albuquerque Center
Tue 04:29:50 PM 33.4283 -113.6658 102° East 544 626 41,000  Level Albuquerque Center
Tue 04:30:52 PM 33.3942 -113.4883 103° East 546 628 41,000  Level Albuquerque Center
Tue 04:31:54 PM 33.3611 -113.3106 103° East 547 629 41,000  Level Albuquerque Center
Tue 04:32:56 PM 33.3272 -113.1311 103° East 549 632 41,000  Level Albuquerque Center
Tue 04:33:57 PM 33.2936 -112.9533 103° East 548 631 41,000  Level Albuquerque Center
Tue 04:34:59 PM 33.2594 -112.7767 103° East 545 627 41,000  Level Albuquerque Center
Tue 04:36:01 PM 33.2181 -112.5683 103° East 544 626 41,000  Level Albuquerque Center
Tue 04:37:03 PM 33.1825 -112.3853 103° East 546 628 41,000  Level Albuquerque Center
Tue 04:38:04 PM 33.1483 -112.2100 103° East 546 628 41,000  Level Albuquerque Center
Tue 04:39:06 PM 33.1133 -112.0350 103° East 547 629 41,000  Level Albuquerque Center
Tue 04:40:08 PM 33.0786 -111.8608 103° East 545 627 41,000  Level Albuquerque Center
Tue 04:41:10 PM 33.0433 -111.6847 103° East 548 631 41,000  Level Albuquerque Center
Tue 04:42:11 PM 33.0078 -111.5114 104° East 545 627 41,000  Level Albuquerque Center
Tue 04:43:13 PM 32.9656 -111.3028 104° East 544 626 41,000  Level Albuquerque Center
Tue 04:44:15 PM 32.9300 -111.1294 104° East 543 625 41,000  Level Albuquerque Center
Tue 04:45:17 PM 32.8936 -110.9553 104° East 543 625 41,000  Level Albuquerque Center
Tue 04:46:19 PM 32.8575 -110.7811 104° East 545 627 41,000  Level Albuquerque Center
Tue 04:47:20 PM 32.8200 -110.6083 104° East 542 624 41,000  Level Albuquerque Center
Tue 04:48:22 PM 32.7833 -110.4347 104° East 542 624 41,000  Level Albuquerque Center
Tue 04:49:24 PM 32.7372 -110.2261 105° East 544 626 41,000  Level Albuquerque Center
Tue 04:50:26 PM 32.7014 -110.0536 104° East 544 626 41,000  Level Albuquerque Center
Tue 04:51:28 PM 32.6622 -109.8817 105° East 543 625 41,000  Level Albuquerque Center
Tue 04:52:29 PM 32.6236 -109.7097 105° East 543 625 41,000  Level Albuquerque Center
Tue 04:53:31 PM 32.5850 -109.5350 105° East 547 629 41,000  Level Albuquerque Center
Tue 04:54:33 PM 32.5464 -109.3647 105° East 544 626 41,000  Level Albuquerque Center
Tue 04:55:35 PM 32.4997 -109.1575 105° East 546 628 41,000  Level Albuquerque Center
Tue 04:56:37 PM 32.4619 -108.9858 105° East 547 629 41,000  Level Albuquerque Center
Tue 04:57:38 PM 32.4222 -108.8125 105° East 549 632 41,000  Level Albuquerque Center
Tue 04:58:40 PM 32.3833 -108.6414 105° East 546 628 41,000  Level Albuquerque Center
Tue 04:59:42 PM 32.3439 -108.4706 105° East 544 626 41,000 -48 Level Albuquerque Center
Tue 05:00:44 PM 32.2986 -108.2789 106° East 545 627 40,900  Descending Albuquerque Center
Tue 05:01:46 PM 32.2592 -108.1067 105° East 546 628 41,000 48 Climbing Albuquerque Center
Tue 05:02:48 PM 32.2183 -107.9347 106° East 546 628 41,000  Level Albuquerque Center
Tue 05:03:50 PM 32.1689 -107.7269 106° East 550 633 41,000  Level Albuquerque Center
Tue 05:04:51 PM 32.1278 -107.5550 106° East 551 634 41,000  Level Albuquerque Center
Tue 05:05:53 PM 32.0869 -107.3825 106° East 553 636 41,000  Level Albuquerque Center
Tue 05:06:55 PM 32.0461 -107.2100 106° East 553 636 41,000  Level Albuquerque Center
Tue 05:07:57 PM 32.0044 -107.0378 106° East 553 636 41,000  Level Albuquerque Center
Tue 05:08:58 PM 31.9622 -106.8658 106° East 553 636 41,000  Level Albuquerque Center
Tue 05:10:00 PM 31.9106 -106.6586 106° East 555 639 41,000  Level Albuquerque Center
Tue 05:11:02 PM 31.8653 -106.4806 107° East 561 646 41,000  Level Albuquerque Center
Tue 05:12:04 PM 31.8231 -106.3031 106° East 564 649 41,000  Level Albuquerque Center
Tue 05:13:06 PM 31.7772 -106.1281 107° East 561 646 41,000  Level Albuquerque Center
Tue 05:14:08 PM 31.7333 -105.9519 106° East 561 646 41,000  Level Albuquerque Center
Tue 05:15:09 PM 31.6886 -105.7750 107° East 564 649 41,000  Level Albuquerque Center
Tue 05:16:11 PM 31.6442 -105.5969 106° East 567 652 41,000  Level Albuquerque Center
Tue 05:17:13 PM 31.5908 -105.3828 106° East 569 655 41,000  Level Albuquerque Center
Tue 05:18:15 PM 31.5453 -105.2078 107° East 562 647 41,000  Level Albuquerque Center
Tue 05:19:16 PM 31.4994 -105.0281 107° East 568 654 41,000  Level Albuquerque Center
Tue 05:20:18 PM 31.4536 -104.8486 107° East 570 656 41,000  Level Albuquerque Center
Tue 05:21:20 PM 31.4075 -104.6700 107° East 571 657 41,000  Level Albuquerque Center
Tue 05:22:22 PM 31.3619 -104.4917 107° East 570 656 41,000 -49 Level Albuquerque Center
Tue 05:23:23 PM 31.3139 -104.3133 107° East 572 658 40,900  Descending Albuquerque Center
Tue 05:24:25 PM 31.2675 -104.1358 107° East 571 657 41,000 48 Climbing Albuquerque Center
Tue 05:25:27 PM 31.2203 -103.9586 107° East 571 657 41,000  Level Albuquerque Center
Tue 05:26:29 PM 31.1583 -103.7536 109° East 561 646 41,000  Level Albuquerque Center
Tue 05:27:31 PM 31.1158 -103.5806 106° East 567 652 41,000  Level Albuquerque Center
Tue 05:28:32 PM 31.0681 -103.4064 108° East 564 649 41,000  Level Albuquerque Center
Tue 05:29:34 PM 31.0211 -103.2358 108° East 557 641 41,000  Level Albuquerque Center
Tue 05:30:36 PM 30.9767 -103.0678 107° East 548 631 41,000  Level Albuquerque Center
Tue 05:31:38 PM 30.9383 -102.8608 102° East 554 638 41,000  Level Albuquerque Center
Tue 05:32:39 PM 30.9225 -102.6847 96° East 553 636 41,000  Level Albuquerque Center
Tue 05:33:41 PM 30.9039 -102.5097 97° East 552 635 41,000  Level Albuquerque Center
Tue 05:34:38 PM 30.8864 -102.3347 97° East 552 635 41,000  Level Houston Center
Tue 05:35:39 PM 30.8686 -102.1606 97° East 552 635 41,000  Level Houston Center
Tue 05:36:41 PM 30.8497 -101.9858 97° East 552 635 41,000  Level Houston Center
Tue 05:37:42 PM 30.8306 -101.8103 97° East 552 635 41,000  Level Houston Center
Tue 05:38:43 PM 30.8150 -101.6344 96° East 552 635 41,000  Level Houston Center
Tue 05:39:45 PM 30.7964 -101.4511 97° East 552 635 41,000  Level Houston Center
Tue 05:40:46 PM 30.7789 -101.2708 96° East 555 639 41,000  Level Houston Center
Tue 05:41:47 PM 30.7603 -101.0900 97° East 560 644 41,000  Level Houston Center
Tue 05:42:49 PM 30.7397 -100.8725 96° East 562 647 41,000  Level Houston Center
Tue 05:43:50 PM 30.7203 -100.6914 97° East 562 647 41,000  Level Houston Center
Tue 05:44:51 PM 30.7008 -100.5092 97° East 563 648 41,000  Level Houston Center
Tue 05:45:52 PM 30.6822 -100.3264 97° East 564 649 41,000  Level Houston Center
Tue 05:46:54 PM 30.6628 -100.1442 97° East 565 650 41,000  Level Houston Center
Tue 05:47:55 PM 30.6417 -99.9517 97° East 565 650 41,000  Level Houston Center
Tue 05:48:56 PM 30.6225 -99.7806 97° East 565 650 41,000  Level Houston Center
Tue 05:49:58 PM 30.6011 -99.5986 98° East 566 651 41,000  Level Houston Center
Tue 05:50:59 PM 30.5814 -99.4169 97° East 566 651 41,000  Level Houston Center
Tue 05:52:00 PM 30.5603 -99.2347 98° East 567 652 41,000  Level Houston Center
Tue 05:53:02 PM 30.5367 -99.0350 98° East 572 658 41,000  Level Houston Center
Tue 05:54:03 PM 30.5147 -98.8419 97° East 577 664 41,000  Level Houston Center
Tue 05:55:04 PM 30.4931 -98.6606 98° East 580 667 41,000  Level Houston Center
Tue 05:56:05 PM 30.4703 -98.4733 98° East 581 669 41,000  Level Houston Center
Tue 05:57:07 PM 30.4472 -98.2833 98° East 586 674 41,000  Level Houston Center
Tue 05:58:08 PM 30.4233 -98.0914 98° East 597 687 41,000  Level Houston Center
Tue 05:59:09 PM 30.3950 -97.8669 98° East 600 690 41,000  Level Houston Center
Tue 06:00:10 PM 30.3717 -97.6747 98° East 601 692 41,000  Level Houston Center
Tue 06:01:12 PM 30.3467 -97.4803 98° East 608 700 41,000  Level Houston Center
Tue 06:02:13 PM 30.3208 -97.2872 99° East 608 700 41,000  Level Houston Center
Tue 06:03:14 PM 30.2961 -97.0892 98° East 613 705 41,000  Level Houston Center
Tue 06:04:15 PM 30.2700 -96.8964 99° East 612 704 41,000  Level Houston Center
Tue 06:05:17 PM 30.2436 -96.7011 99° East 612 704 41,000  Level Houston Center
Tue 06:06:18 PM 30.2169 -96.5053 99° East 612 704 41,000  Level Houston Center
Tue 06:07:19 PM 30.1897 -96.3106 99° East 612 704 41,000  Level Houston Center
Tue 06:08:20 PM 30.1622 -96.1139 99° East 613 705 41,000  Level Houston Center
Tue 06:09:22 PM 30.1342 -95.9136 99° East 613 705 41,000  Level Houston Center
Tue 06:10:23 PM 30.1064 -95.7186 99° East 613 705 41,000  Level Houston Center
Tue 06:11:24 PM 30.0789 -95.5244 99° East 613 705 41,000  Level Houston Center
Tue 06:12:25 PM 30.0461 -95.3050 100° East 613 705 41,000  Level Houston Center
Tue 06:13:27 PM 30.0186 -95.1100 99° East 614 707 41,000  Level Houston Center
Tue 06:14:28 PM 29.9886 -94.9144 100° East 617 710 41,000  Level Houston Center
Tue 06:15:29 PM 29.9556 -94.7050 100° East 618 711 41,000  Level Houston Center
Tue 06:16:30 PM 29.9164 -94.5133 103° East 618 711 41,000  Level Houston Center
Tue 06:17:32 PM 29.8756 -94.3219 104° East 618 711 41,000  Level Houston Center
Tue 06:18:33 PM 29.8350 -94.1306 104° East 618 711 41,000  Level Houston Center
Tue 06:19:34 PM 29.7939 -93.9400 104° East 618 711 41,000  Level Houston Center
Tue 06:20:35 PM 29.7528 -93.7500 104° East 619 712 41,000  Level Houston Center
Tue 06:21:37 PM 29.7114 -93.5592 104° East 619 712 41,000  Level Houston Center
Tue 06:22:38 PM 29.6622 -93.3300 104° East 619 712 41,000  Level Houston Center
Tue 06:23:39 PM 29.6197 -93.1392 104° East 619 712 41,000  Level Houston Center
Tue 06:24:41 PM 29.5778 -92.9497 104° East 619 712 41,000  Level Houston Center
Tue 06:25:42 PM 29.5350 -92.7606 105° East 619 712 41,000  Level Houston Center
Tue 06:26:43 PM 29.4922 -92.5689 104° East 619 712 41,000  Level Houston Center
Tue 06:27:44 PM 29.4486 -92.3786 105° East 621 715 41,000  Level Houston Center
Tue 06:28:46 PM 29.4058 -92.1883 104° East 620 713 41,000  Level Houston Center
Tue 06:29:47 PM 29.3536 -91.9583 105° East 620 713 41,000  Level Houston Center
Tue 06:30:48 PM 29.3081 -91.7683 105° East 621 715 41,000  Level Houston Center
Tue 06:31:50 PM 29.2711 -91.6033 104° East 621 715 41,000  Level Houston Center
Tue 06:32:51 PM 29.2169 -91.3747 105° East 621 715 41,000  Level Houston Center
Tue 06:33:52 PM 29.1714 -91.1831 105° East 623 717 41,000  Level Houston Center
Tue 06:34:53 PM 29.1261 -90.9933 105° East 623 717 41,000  Level Houston Center
Tue 06:35:55 PM 29.0811 -90.8036 105° East 623 717 41,000  Level Houston Center
Tue 06:36:56 PM 29.0356 -90.6161 105° East 621 715 41,000  Level Houston Center
Tue 06:37:57 PM 28.9897 -90.4272 105° East 621 715 41,000  Level Houston Center
Tue 06:38:58 PM 28.9433 -90.2072 103° East 621 715 41,000  Level Houston Center
Tue 06:40:00 PM 28.9092 -90.0458 104° East 621 715 41,000  Level Houston Center
Tue 06:41:01 PM 28.8597 -89.8175 104° East 621 715 41,000  Level Houston Center
Tue 06:42:02 PM 28.8181 -89.6267 104° East 622 716 41,000  Level Houston Center
Tue 06:43:03 PM 28.7761 -89.4342 104° East 628 723 41,000  Level Houston Center
Tue 06:44:05 PM 28.7336 -89.2467 104° East 621 715 41,000  Level Houston Center
Tue 06:45:06 PM 28.6919 -89.0575 104° East 620 713 41,000  Level Houston Center
Tue 06:46:07 PM 28.6503 -88.8708 104° East 617 710 41,000  Level Houston Center
Tue 06:47:08 PM 28.6075 -88.6833 105° East 615 708 41,000  Level Houston Center
Tue 06:48:10 PM 28.5636 -88.4942 105° East 617 710 41,000  Level Houston Center
Tue 06:49:11 PM 28.5125 -88.2656 104° East 620 713 41,000  Level Houston Center
Tue 06:50:12 PM 28.4703 -88.0850 105° East 620 713 41,000 -49 Level Houston Center
Tue 06:51:13 PM 28.4256 -87.8900 105° East 618 711 40,900  Descending Houston Center
Tue 06:52:15 PM 28.3789 -87.7100 106° East 617 710 41,000 49 Climbing Houston Center
Tue 06:53:16 PM 28.3303 -87.5247 107° East 617 710 41,000  Level Houston Center
Tue 06:54:17 PM 28.2817 -87.3372 106° East 617 710 41,000  Level Houston Center
Tue 06:55:19 PM 28.2336 -87.1519 106° East 617 710 41,000  Level Houston Center
Tue 06:56:20 PM 28.1858 -86.9667 106° East 617 710 41,000  Level Houston Center
Tue 06:57:21 PM 28.1272 -86.7436 107° East 617 710 41,000  Level Houston Center
Tue 06:58:22 PM 28.0783 -86.5592 107° East 617 710 41,000  Level Houston Center
Tue 06:59:23 PM 28.0283 -86.3747 107° East 616 709 41,000  Level Houston Center
Tue 07:00:24 PM 27.9797 -86.1889 106° East 616 709 41,000  Level Houston Center
Tue 07:01:41 PM 27.9150 -85.9689 108° East 609 701 41,000  Level Jacksonville Center
Tue 07:02:41 PM 27.8653 -85.7703 106° East 616 709 41,000  Level Jacksonville Center
Tue 07:03:53 PM 27.8047 -85.5381 106° East 675 777 41,000  Level Miami Center
Tue 07:04:53 PM 27.7514 -85.3514 108° East 637 733 41,000  Level Miami Center
Tue 07:05:53 PM 27.6997 -85.1647 107° East 621 715 41,000  Level Miami Center
Tue 07:06:53 PM 27.6436 -84.9806 109° East 621 715 41,000 -50 Level Miami Center
Tue 07:07:53 PM 27.5956 -84.7947 106° East 621 715 40,900  Descending Miami Center
Tue 07:08:53 PM 27.5411 -84.6086 108° East 616 709 41,000 50 Climbing Miami Center
Tue 07:09:53 PM 27.4903 -84.4275 108° East 616 709 41,000  Level Miami Center
Tue 07:10:53 PM 27.4372 -84.2439 108° East 616 709 41,000  Level Miami Center
Tue 07:11:53 PM 27.3858 -84.0631 108° East 616 709 41,000  Level Miami Center
Tue 07:12:53 PM 27.3344 -83.8800 107° East 616 709 41,000 -450 Level Miami Center
Tue 07:13:53 PM 27.2806 -83.6994 109° East 616 709 40,100 -1,100 Descending Miami Center
Tue 07:14:53 PM 27.2286 -83.5192 108° East 611 703 38,800 -1,300 Descending Miami Center
Tue 07:15:53 PM 27.1742 -83.3386 109° East 611 703 37,500 -1,300 Descending Miami Center
Tue 07:16:53 PM 27.1233 -83.1633 108° East 605 696 36,200 -1,300 Descending Miami Center
Tue 07:17:53 PM 27.0725 -82.9881 108° East 600 690 34,900 -1,350 Descending Miami Center
Tue 07:18:53 PM 27.0194 -82.8131 109° East 595 685 33,500 -1,600 Descending Miami Center
Tue 07:19:53 PM 26.9681 -82.6356 108° East 595 685 31,700 -1,950 Descending Miami Center
Tue 07:20:53 PM 26.9181 -82.4772 109° East 595 685 29,600 -2,100 Descending Miami Center
Tue 07:21:53 PM 26.8661 -82.3047 109° East 590 679 27,500 -1,800 Descending Miami Center
Tue 07:22:53 PM 26.8197 -82.1444 108° East 572 658 26,000 -1,900 Descending Miami Center
Tue 07:23:53 PM 26.7714 -81.9867 109° East 554 638 23,700 -2,300 Descending Miami Center
Tue 07:24:53 PM 26.7264 -81.8336 108° East 532 612 21,400 -2,300 Descending Miami Center
Tue 07:25:53 PM 26.6875 -81.6925 107° East 500 575 19,100 -1,200 Descending Miami Center
Tue 07:26:53 PM 26.7136 -81.5331 80° East 449 517 19,000 -750 Descending Miami Center
Tue 07:27:53 PM 26.7425 -81.4042 76° East 465 535 17,600 -1,700 Descending Miami Center
Tue 07:28:53 PM 26.7783 -81.2611 74° East 471 542 15,600 -2,150 Descending Miami Center
Tue 07:29:53 PM 26.8119 -81.1111 76° East 466 536 13,300 -2,000 Descending Miami Center
Tue 07:30:53 PM 26.8283 -80.9839 82° East 434 499 11,600 -1,550 Descending Miami Center
Tue 07:31:53 PM 26.8397 -80.8747 83° East 378 435 10,200 -800 Descending Miami Center
Tue 07:32:53 PM 26.8167 -80.7972 108° East 289 333 10,000 -100 Descending Miami Center
Tue 07:33:53 PM 26.7858 -80.7078 111° Southeast 300 345 10,000 -650 Level Miami Center
Tue 07:34:53 PM 26.7522 -80.6253 115° Southeast 305 351 8,700 -1,350 Descending Miami Center
Tue 07:35:53 PM 26.7172 -80.5336 113° Southeast 300 345 7,300 -1,350 Descending Miami Center
Tue 07:36:53 PM 26.6961 -80.4561 107° East 290 334 6,000 -1,650 Descending Miami Center
Tue 07:37:53 PM 26.6922 -80.3631 93° East 278 320 4,000 -1,550 Descending Miami Center
Tue 07:38:53 PM 26.6897 -80.2908 92° East 266 306 2,900 -1,000 Descending Miami Center
Tue 07:39:53 PM 26.6850 -80.2233 94° East 220 253 2,000 -900 Descending Miami Center
Tue 07:41:00 PM 26.6460 -80.1109 50° Northeast  Level FlightAware Approximate
Tue 07:48:00 PM 26.6667 -80.0833 50° Northeast  Level FlightAware Approximate
Tue 07:49:00 PM 26.6832 -80.0956 50° Northeast  Level Estimated
Tue 07:50:00 PM 26.6832 -80.0956 50° Northeast  Level Estimated

Login

Don't have an account? Register now (free) for customized features, flight alerts, and more!